Tracking 33485 objects as of 15-Mar-2026
HD Live streaming from Space Station
objects crossing your sky now

KUIPER-00137

Track KUIPER-00137 now!
10-day predictions
KUIPER-00137 is classified as:


NORAD ID: 65963
Int'l Code: 2025-228S
Perigee: 640.0 km
Apogee: 641.1 km
Inclination: 51.9 °
Period: 97.4 minutes
Semi major axis: 7011 km
RCS: Unknown
Launch date: October 14, 2025
Source: United States (US)
Launch site: AIR FORCE EASTERN TEST RANGE (AFETR)
Your satellite tracking list
Your tracking list is empty




NASA's NSSDC Master Catalog

Two Line Element Set (TLE):
1 65963U 25228S   26072.22238331  .00068222  00000-0  91478-2 0  9990
2 65963  51.9051 329.9797 0000785 165.8059 194.2925 14.78714320 23961
Source of the keplerian elements: AFSPC